Home   Weather   Wals-Siezenheim   Past weeks

Flag for Austria Past Weather in Wals-Siezenheim, Salzburg, Austria — Yesterday and Last 2 Weeks

Now
45 °F

Broken clouds.


Feels Like: 39 °F
Forecast: 38 / 49 °F
Wind: 10 mph from Northwest

Location: Salzburg-Flughafen

Current Time: Apr 26, 2017 at 1:58:17 pm

Latest Report: Apr 26, 2017 at 1:20 pm


Visibility: 4 mi

Pressure: 29.77 "Hg

Humidity: 93%

Dew Point: 43 °F

Location of Wals-SiezenheimLocation

Past Weather in Wals-Siezenheim — Graph

°F

Wals-Siezenheim Temperature Yesterday

Maximum temperature yesterday: 64 °F (at 1:50 pm)
Minimum temperature yesterday: 45 °F (at 12:20 am)
Average temperature yesterday: 54 °F

High & Low Weather Summary for the Past Weeks

 TemperatureHumidityPressure
High64 °F (Apr 12, 5:50 pm)100% (Apr 18, 6:50 pm)30.51 "Hg (Apr 18, 6:50 pm)
Low30 °F (Apr 20, 3:20 am)32% (Apr 21, 5:20 pm)29.71 "Hg (Apr 25, 2:50 pm)
Average45 °F73%30.10 "Hg
* Reported Apr 11 12:20 pm — Apr 26 12:50 pm, Wals-Siezenheim, Weather by CustomWeather, © 2017

Note: Actual official high and low records may vary slightly from our data, if they occured in-between our weather recording intervals... More about our weather records

Advertising

Wals-Siezenheim Weather History for the Previous 24 Hours

Scroll right to see more
 ConditionsComfort  
Time TempWeatherWind HumidityBarometerVisibility
12:50 pm
Wed, Apr 26
45 °FBroken clouds.9 mph93%29.77 "Hg4 mi
12:20 pm45 °FPartly sunny.10 mph93%29.77 "Hg4 mi
11:50 am45 °FFog.9 mph93%29.74 "Hg3 mi
11:20 am45 °FFog.8 mph87%29.74 "Hg3 mi
10:50 am45 °FMostly cloudy.8 mph93%29.74 "Hg4 mi
10:20 am45 °FPartly sunny.8 mph93%29.74 "Hg4 mi
9:50 am45 °FFog.8 mph93%29.74 "Hg3 mi
9:20 am45 °FFog.7 mph93%29.74 "Hg2 mi
8:50 am45 °FBroken clouds.5 mph93%29.74 "Hg4 mi
8:20 am45 °FFog.8 mph93%29.74 "Hg2 mi
7:50 am45 °FFog.6 mph93%29.74 "Hg2 mi
7:20 am43 °FFog.7 mph100%29.71 "Hg2 mi
6:50 am43 °FDrizzle. Fog.7 mph100%29.71 "Hg1 mi
6:20 am43 °FDrizzle. Fog.6 mph100%29.71 "Hg1 mi
5:50 am43 °FDrizzle. Fog.6 mph100%29.71 "Hg2 mi
5:20 am43 °FDrizzle. Fog.7 mph100%29.71 "Hg2 mi
4:50 am43 °FDrizzle. Fog.6 mph100%29.71 "Hg2 mi
4:20 am45 °FSprinkles. Fog.5 mph93%29.71 "Hg2 mi
3:50 am45 °FSprinkles. Fog.8 mph93%29.71 "Hg2 mi
3:20 am45 °FDrizzle. Fog.9 mph93%29.71 "Hg2 mi
2:50 am45 °FSprinkles. Fog.12 mph100%29.71 "Hg2 mi
2:20 am46 °FDrizzle. Fog.6 mph93%29.71 "Hg2 mi
1:50 am46 °FDrizzle. Fog.6 mph93%29.71 "Hg3 mi
1:20 am46 °FDrizzle. Fog.6 mph93%29.71 "Hg2 mi
12:50 am46 °FPassing clouds.6 mph100%29.74 "Hg2 mi
12:20 am48 °FDrizzle. Fog.8 mph94%29.74 "Hg2 mi
11:50 pm
Tue, Apr 25
48 °FDrizzle. Fog.7 mph94%29.74 "Hg3 mi
11:20 pm48 °FPartly cloudy.8 mph94%29.74 "Hg4 mi
10:50 pm48 °FLight rain. Partly cloudy.9 mph94%29.77 "HgN/A
10:20 pm50 °FLight rain. Passing clouds.10 mph88%29.77 "HgN/A
9:50 pm52 °FPassing clouds.12 mph82%29.77 "HgN/A
9:20 pm54 °FMostly cloudy.8 mph77%29.74 "HgN/A
8:50 pm54 °FPassing clouds.9 mph82%29.74 "HgN/A
8:20 pm55 °FPartly cloudy.3 mph77%29.71 "HgN/A
7:50 pm55 °FBroken clouds.2 mph72%29.71 "HgN/A
7:20 pm55 °FBroken clouds.2 mph72%29.74 "HgN/A
6:50 pm55 °FPartly sunny.2 mph77%29.71 "HgN/A
6:20 pm55 °FPartly sunny.3 mph77%29.71 "HgN/A
5:50 pm55 °FPartly sunny.3 mph77%29.74 "HgN/A
5:20 pm55 °FPartly sunny.7 mph77%29.74 "HgN/A
4:50 pm55 °FBroken clouds.13 mph77%29.74 "HgN/A
4:20 pm57 °FRain showers. Partly sunny.23 mph67%29.74 "HgN/A
3:50 pm61 °FPartly sunny.13 mph55%29.71 "HgN/A
3:20 pm63 °FBroken clouds.12 mph52%29.71 "HgN/A
2:50 pm64 °FBroken clouds.9 mph56%29.71 "HgN/A
2:20 pm64 °FPartly sunny.9 mph49%29.74 "HgN/A
1:50 pm64 °FPartly sunny.6 mph49%29.74 "HgN/A
1:20 pm63 °FBroken clouds.8 mph52%29.74 "HgN/A
Weather by CustomWeather, © 2017

See weather overviewHow to use our weather pages